Voltar ao catálogo

STARLINK-35848

AtivoComunicaçõesVLEO
NORAD 66349·PAYLOAD·🇺🇸 United States

Lançado Nov 6, 2025 de Vandenberg Space Force Base

Loading…

Próximas Passagens (próximas 24 horas)

TLE

AtualizadoSource: CelesTrak SupGP

Época: Sep 15, 2026, 03:21 UTC

1 66349C 25254B   26258.14006944 -.00027591  00000+0 -88730-3 0  2589
2 66349  53.1571  71.3583 0001228  91.3662  35.4783 15.31714562    15

Acompanhe STARLINK-35848 em tempo real com AllMySat

Download on the App Store